Location: Newark
(31.5350°N, 35.0986°E)
Time: 08:20:48
(UTC+00:00)

Transit 4A - Pass Details

Date: 21 October 2019
Orbit: 868 x 976 km, 66.8° (Epoch: 13 November)

Event Time Altitude Azimuth Distance (km) Brightness Sun altitude
Rises 09:45:27 0° 355° (N) 3,535 10.5 47.5°
Reaches altitude 10° 09:49:52 10° 25° (NNE) 2,564 9.9 47.4°
Maximum altitude 09:52:06 12° 48° (NE) 2,400 9.9 47.3°
Drops below altitude 10° 09:54:19 10° 71° (ENE) 2,538 10.1 47.2°
Sets 09:58:36 0° 101° (E) 3,456 10.9 47.0°
